Year,Month,Day,Hour,Minute,Value (Times are PST for temperature in C)
2017,02,10,00,00,4.50
2017,02,10,00,01,4.50
2017,02,10,00,02,4.40
2017,02,10,00,03,4.40
2017,02,10,00,04,4.40
2017,02,10,00,05,4.30
2017,02,10,00,06,4.30
2017,02,10,00,07,4.30
2017,02,10,00,08,4.30
2017,02,10,00,09,4.30
2017,02,10,00,10,4.20
2017,02,10,00,11,4.20
2017,02,10,00,12,4.10
2017,02,10,00,13,4.10
2017,02,10,00,14,4.00
2017,02,10,00,15,4.00
2017,02,10,00,16,3.90
2017,02,10,00,17,3.90
2017,02,10,00,18,3.90
2017,02,10,00,19,3.80
2017,02,10,00,20,3.80
2017,02,10,00,21,3.80
2017,02,10,00,22,3.80
2017,02,10,00,23,3.70
2017,02,10,00,24,3.70
2017,02,10,00,25,3.70
2017,02,10,00,26,3.60
2017,02,10,00,27,3.60
2017,02,10,00,28,3.50
2017,02,10,00,29,3.40
2017,02,10,00,30,3.30
2017,02,10,00,31,3.20
2017,02,10,00,32,3.00
2017,02,10,00,33,2.90
2017,02,10,00,34,2.80
2017,02,10,00,35,2.70
2017,02,10,00,36,2.60
2017,02,10,00,37,2.50
2017,02,10,00,38,2.50
2017,02,10,00,39,2.40
2017,02,10,00,40,2.30
2017,02,10,00,41,2.30
2017,02,10,00,42,2.20
2017,02,10,00,43,2.10
2017,02,10,00,44,2.10
2017,02,10,00,45,2.00
2017,02,10,00,46,1.90
2017,02,10,00,47,1.90
2017,02,10,00,48,1.80
2017,02,10,00,49,1.80
2017,02,10,00,50,1.80
2017,02,10,00,51,1.80
2017,02,10,00,52,1.70
2017,02,10,00,53,1.70
2017,02,10,00,54,1.70
2017,02,10,00,55,1.60
2017,02,10,00,56,1.60
2017,02,10,00,57,1.60
2017,02,10,00,58,1.60
2017,02,10,00,59,1.60
2017,02,10,01,00,1.60
2017,02,10,01,01,1.50
2017,02,10,01,02,1.50
2017,02,10,01,03,1.50
2017,02,10,01,04,1.50
2017,02,10,01,05,1.50
2017,02,10,01,06,1.40
2017,02,10,01,07,1.40
2017,02,10,01,08,1.40
2017,02,10,01,09,1.30
2017,02,10,01,10,1.30
2017,02,10,01,11,1.30
2017,02,10,01,12,1.30
2017,02,10,01,13,1.30
2017,02,10,01,14,1.30
2017,02,10,02,51,1.30
2017,02,10,02,52,1.30
2017,02,10,02,53,1.30
2017,02,10,02,54,1.30
2017,02,10,02,55,1.30
2017,02,10,02,56,1.30
2017,02,10,02,57,1.30
2017,02,10,02,58,1.30
2017,02,10,02,59,1.20
2017,02,10,03,00,1.20
2017,02,10,03,01,1.20
2017,02,10,03,02,1.20
2017,02,10,03,03,1.10
2017,02,10,03,04,1.10
2017,02,10,03,05,1.10
2017,02,10,03,06,1.10
2017,02,10,03,07,1.00
2017,02,10,03,08,1.00
2017,02,10,03,09,1.00
2017,02,10,03,10,0.90
2017,02,10,03,11,0.90
2017,02,10,03,12,0.90
2017,02,10,03,13,0.90
2017,02,10,03,14,0.90
2017,02,10,03,15,0.80
2017,02,10,03,16,0.80
2017,02,10,03,17,0.80
2017,02,10,03,18,0.80
2017,02,10,03,19,0.80
2017,02,10,03,20,0.70
2017,02,10,03,21,0.70
2017,02,10,03,22,0.70
2017,02,10,03,23,0.70
2017,02,10,03,24,0.70
2017,02,10,03,25,0.70
2017,02,10,03,26,0.70
2017,02,10,03,27,0.70
2017,02,10,03,28,0.60
2017,02,10,03,29,0.60
2017,02,10,03,30,0.60
2017,02,10,03,31,0.60
2017,02,10,03,32,0.60
2017,02,10,03,33,0.60
2017,02,10,03,34,0.50
2017,02,10,03,35,0.50
2017,02,10,03,36,0.50
2017,02,10,03,37,0.40
2017,02,10,03,38,0.40
2017,02,10,03,39,0.40
2017,02,10,03,40,0.40
2017,02,10,03,41,0.40
2017,02,10,03,42,0.40
2017,02,10,03,43,0.40
2017,02,10,03,44,0.40
2017,02,10,03,45,0.30
2017,02,10,03,46,0.30
2017,02,10,03,47,0.30
2017,02,10,03,48,0.30
2017,02,10,03,49,0.30
2017,02,10,03,50,0.30
2017,02,10,03,51,0.30
2017,02,10,03,52,0.20
2017,02,10,03,53,0.20
2017,02,10,03,54,0.20
2017,02,10,03,55,0.20
2017,02,10,03,56,0.20
2017,02,10,03,57,0.20
2017,02,10,03,58,0.20
2017,02,10,03,59,0.20
2017,02,10,04,00,0.20
2017,02,10,04,01,0.20
2017,02,10,04,02,0.20
2017,02,10,04,03,0.10
2017,02,10,04,04,0.10
2017,02,10,04,05,0.10
2017,02,10,04,06,0.10
2017,02,10,04,07,0.10
2017,02,10,04,08,0.10
2017,02,10,04,09,0.10
2017,02,10,04,10,0.00
2017,02,10,04,11,0.00
2017,02,10,04,12,0.00
2017,02,10,04,13,0.00
2017,02,10,04,14,0.00
2017,02,10,04,15,-0.10
2017,02,10,04,16,-0.10
2017,02,10,04,17,-0.10
2017,02,10,04,18,-0.10
2017,02,10,04,19,-0.10
2017,02,10,04,20,-0.10
2017,02,10,04,21,-0.10
2017,02,10,04,22,-0.10
2017,02,10,04,23,-0.10
2017,02,10,04,24,-0.10
2017,02,10,04,25,-0.10
2017,02,10,04,26,-0.10
2017,02,10,04,27,-0.10
2017,02,10,04,28,-0.10
2017,02,10,04,29,-0.10
2017,02,10,04,30,-0.10
2017,02,10,04,31,-0.10
2017,02,10,04,32,-0.10
2017,02,10,04,33,-0.10
2017,02,10,04,34,-0.10
2017,02,10,04,35,-0.10
2017,02,10,04,36,-0.10
2017,02,10,04,37,0.00
2017,02,10,04,38,0.00
2017,02,10,04,39,0.00
2017,02,10,04,40,0.00
2017,02,10,04,41,0.00
2017,02,10,04,42,0.00
2017,02,10,04,43,0.00
2017,02,10,04,44,0.00
2017,02,10,04,45,0.00
2017,02,10,04,46,0.00
2017,02,10,04,47,0.10
2017,02,10,04,48,0.10
2017,02,10,04,49,0.10
2017,02,10,04,50,0.10
2017,02,10,04,51,0.10
2017,02,10,04,52,0.10
2017,02,10,04,53,0.10
2017,02,10,04,54,0.10
2017,02,10,04,55,0.20
2017,02,10,04,56,0.20
2017,02,10,04,57,0.20
2017,02,10,04,58,0.20
2017,02,10,04,59,0.20
2017,02,10,05,00,0.20
2017,02,10,05,01,0.20
2017,02,10,05,02,0.20
2017,02,10,05,03,0.30
2017,02,10,05,04,0.30
2017,02,10,05,05,0.30
2017,02,10,05,06,0.30
2017,02,10,05,07,0.30
2017,02,10,05,08,0.30
2017,02,10,05,09,0.30
2017,02,10,05,10,0.30
2017,02,10,05,11,0.30
2017,02,10,05,12,0.30
2017,02,10,05,13,0.30
2017,02,10,05,14,0.30
2017,02,10,05,15,0.30
2017,02,10,05,16,0.30
2017,02,10,05,17,0.30
2017,02,10,05,18,0.30
2017,02,10,05,19,0.40
2017,02,10,05,20,0.40
2017,02,10,05,21,0.40
2017,02,10,05,22,0.40
2017,02,10,05,23,0.40
2017,02,10,05,24,0.40
2017,02,10,05,25,0.40
2017,02,10,05,26,0.40
2017,02,10,05,27,0.40
2017,02,10,05,28,0.40
2017,02,10,05,29,0.40
2017,02,10,05,30,0.40
2017,02,10,05,31,0.40
2017,02,10,05,32,0.40
2017,02,10,05,33,0.40
2017,02,10,05,34,0.40
2017,02,10,05,35,0.40
2017,02,10,05,36,0.40
2017,02,10,05,37,0.40
2017,02,10,05,38,0.40
2017,02,10,05,39,0.40
2017,02,10,05,40,0.40
2017,02,10,05,41,0.40
2017,02,10,05,42,0.40
2017,02,10,05,43,0.40
2017,02,10,05,44,0.40
2017,02,10,05,45,0.40
2017,02,10,05,46,0.40
2017,02,10,05,47,0.40
2017,02,10,05,48,0.40
2017,02,10,05,49,0.40
2017,02,10,05,50,0.40
2017,02,10,05,51,0.40
2017,02,10,05,52,0.50
2017,02,10,05,53,0.50
2017,02,10,05,54,0.50
2017,02,10,05,55,0.50
2017,02,10,05,56,0.50
2017,02,10,05,57,0.50
2017,02,10,05,58,0.50
2017,02,10,05,59,0.50
2017,02,10,06,00,0.50
2017,02,10,06,01,0.50
2017,02,10,06,02,0.40
2017,02,10,06,03,0.50
2017,02,10,06,04,0.40
2017,02,10,06,05,0.40
2017,02,10,06,06,0.40
2017,02,10,06,07,0.40
2017,02,10,06,08,0.40
2017,02,10,06,09,0.40
2017,02,10,06,10,0.40
2017,02,10,06,11,0.40
2017,02,10,06,12,0.40
2017,02,10,06,13,0.40
2017,02,10,06,14,0.40
2017,02,10,06,15,0.40
2017,02,10,06,16,0.30
2017,02,10,06,17,0.40
2017,02,10,06,18,0.30
2017,02,10,06,19,0.30
2017,02,10,06,20,0.30
2017,02,10,06,21,0.30
2017,02,10,06,22,0.40
2017,02,10,06,23,0.40
2017,02,10,06,24,0.40
2017,02,10,06,25,0.40
2017,02,10,06,26,0.40
2017,02,10,06,27,0.40
2017,02,10,06,28,0.40
2017,02,10,06,29,0.30
2017,02,10,06,30,0.30
2017,02,10,06,31,0.30
2017,02,10,06,32,0.40
2017,02,10,06,33,0.40
2017,02,10,06,34,0.40
2017,02,10,06,35,0.40
2017,02,10,06,36,0.40
2017,02,10,06,37,0.40
2017,02,10,06,38,0.40
2017,02,10,06,39,0.40
2017,02,10,06,40,0.30
2017,02,10,06,41,0.30
2017,02,10,06,42,0.30
2017,02,10,06,43,0.30
2017,02,10,06,44,0.30
2017,02,10,06,45,0.30
2017,02,10,06,46,0.30
2017,02,10,06,47,0.30
2017,02,10,06,48,0.30
2017,02,10,06,49,0.30
2017,02,10,06,50,0.30
2017,02,10,06,51,0.30
2017,02,10,06,52,0.30
2017,02,10,06,53,0.40
2017,02,10,06,54,0.40
2017,02,10,06,55,0.40
2017,02,10,06,56,0.40
2017,02,10,06,57,0.40
2017,02,10,06,58,0.40
2017,02,10,06,59,0.40
2017,02,10,07,00,0.40
2017,02,10,07,01,0.40
2017,02,10,07,02,0.40
2017,02,10,07,03,0.40
2017,02,10,07,04,0.50
2017,02,10,07,05,0.50
2017,02,10,07,06,0.50
2017,02,10,07,07,0.50
2017,02,10,07,08,0.50
2017,02,10,07,09,0.50
2017,02,10,07,10,0.60
2017,02,10,07,11,0.50
2017,02,10,07,12,0.50
2017,02,10,07,13,0.50
2017,02,10,07,14,0.50
2017,02,10,07,15,0.50
2017,02,10,07,16,0.50
2017,02,10,07,17,0.50
2017,02,10,07,18,0.60
2017,02,10,07,19,0.60
2017,02,10,07,20,0.60
2017,02,10,07,21,0.60
2017,02,10,07,22,0.60
2017,02,10,07,23,0.60
2017,02,10,07,24,0.60
2017,02,10,07,25,0.60
2017,02,10,07,26,0.60
2017,02,10,07,27,0.60
2017,02,10,07,28,0.60
2017,02,10,07,29,0.60
2017,02,10,07,30,0.60
2017,02,10,07,31,0.60
2017,02,10,07,32,0.60
2017,02,10,07,33,0.60
2017,02,10,07,34,0.60
2017,02,10,07,35,0.60
2017,02,10,07,36,0.60
2017,02,10,07,37,0.60
2017,02,10,07,38,0.60
2017,02,10,07,39,0.60
2017,02,10,07,40,0.60
2017,02,10,07,41,0.60
2017,02,10,07,42,0.60
2017,02,10,07,43,0.60
2017,02,10,07,44,0.60
2017,02,10,07,45,0.60
2017,02,10,07,46,0.60
2017,02,10,07,47,0.60
2017,02,10,07,48,0.60
2017,02,10,07,49,0.60
2017,02,10,07,50,0.60
2017,02,10,07,51,0.60
2017,02,10,07,52,0.60
2017,02,10,07,53,0.60
2017,02,10,07,54,0.60
2017,02,10,07,55,0.60
2017,02,10,07,56,0.60
2017,02,10,07,57,0.60
2017,02,10,07,58,0.60
2017,02,10,07,59,0.60
2017,02,10,08,00,0.60
2017,02,10,08,01,0.70
2017,02,10,08,02,0.70
2017,02,10,08,03,0.70
2017,02,10,08,04,0.70
2017,02,10,08,05,0.70
2017,02,10,08,06,0.70
2017,02,10,08,07,0.70
2017,02,10,08,08,0.80
2017,02,10,08,09,0.80
2017,02,10,08,10,0.80
2017,02,10,08,11,0.80
2017,02,10,08,12,0.80
2017,02,10,08,13,0.80
2017,02,10,08,14,0.80
2017,02,10,08,15,0.90
2017,02,10,08,16,0.90
2017,02,10,08,17,0.90
2017,02,10,08,18,0.90
2017,02,10,08,19,0.90
2017,02,10,08,20,0.90
2017,02,10,08,21,0.90
2017,02,10,08,22,1.00
2017,02,10,08,23,1.00
2017,02,10,08,24,1.00
2017,02,10,08,25,1.00
2017,02,10,08,26,1.10
2017,02,10,08,27,1.10
2017,02,10,08,28,1.10
2017,02,10,08,29,1.20
2017,02,10,08,30,1.20
2017,02,10,08,31,1.20
2017,02,10,08,32,1.20
2017,02,10,08,33,1.20
2017,02,10,08,34,1.30
2017,02,10,08,35,1.30
2017,02,10,08,36,1.30
2017,02,10,08,37,1.30
2017,02,10,08,38,1.30
2017,02,10,08,39,1.40
2017,02,10,08,40,1.50
2017,02,10,08,41,1.60
2017,02,10,08,42,1.60
2017,02,10,08,43,1.60
2017,02,10,08,44,1.60
2017,02,10,08,45,1.60
2017,02,10,08,46,1.60
2017,02,10,08,47,1.60
2017,02,10,08,48,1.60
2017,02,10,08,49,1.60
2017,02,10,08,50,1.50
2017,02,10,08,51,1.50
2017,02,10,08,52,1.50
2017,02,10,08,53,1.50
2017,02,10,08,54,1.50
2017,02,10,08,55,1.50
2017,02,10,08,56,1.60
2017,02,10,08,57,1.60
2017,02,10,08,58,1.60
2017,02,10,08,59,1.60
2017,02,10,09,00,1.70
2017,02,10,09,01,1.70
2017,02,10,09,02,1.70
2017,02,10,09,03,1.70
2017,02,10,09,04,1.70
2017,02,10,09,05,1.70
2017,02,10,09,06,1.70
2017,02,10,09,07,1.70
2017,02,10,09,08,1.80
2017,02,10,09,09,1.80
2017,02,10,09,10,1.90
2017,02,10,09,11,2.00
2017,02,10,09,12,2.00
2017,02,10,09,13,2.00
2017,02,10,09,14,2.00
2017,02,10,09,15,2.10
2017,02,10,09,16,2.20
2017,02,10,09,17,2.30
2017,02,10,09,18,2.30
2017,02,10,09,19,2.40
2017,02,10,09,20,2.40
2017,02,10,09,21,2.40
2017,02,10,09,22,2.40
2017,02,10,09,23,2.50
2017,02,10,09,24,2.50
2017,02,10,09,25,2.60
2017,02,10,09,26,2.70
2017,02,10,09,27,2.80
2017,02,10,09,28,2.80
2017,02,10,09,29,2.90
2017,02,10,09,30,3.00
2017,02,10,09,31,3.10
2017,02,10,09,32,3.20
2017,02,10,09,33,3.20
2017,02,10,09,34,3.30
2017,02,10,09,35,3.30
2017,02,10,09,36,3.40
2017,02,10,09,37,3.40
2017,02,10,09,38,3.50
2017,02,10,09,39,3.50
2017,02,10,09,40,3.50
2017,02,10,09,41,3.60
2017,02,10,09,42,3.60
2017,02,10,09,43,3.60
2017,02,10,09,44,3.70
2017,02,10,09,45,3.70
2017,02,10,09,46,3.70
2017,02,10,09,47,3.70
2017,02,10,09,48,3.80
2017,02,10,09,49,3.80
2017,02,10,09,50,3.80
2017,02,10,09,51,3.80
2017,02,10,09,52,3.80
2017,02,10,09,53,3.80
2017,02,10,09,54,3.80
2017,02,10,09,55,3.80
2017,02,10,09,56,3.80
2017,02,10,09,57,3.80
2017,02,10,09,58,3.80
2017,02,10,09,59,3.80
2017,02,10,10,00,3.80
2017,02,10,10,01,3.80
2017,02,10,10,02,3.90
2017,02,10,10,03,3.80
2017,02,10,10,04,3.80
2017,02,10,10,05,3.80
2017,02,10,10,06,3.80
2017,02,10,10,07,3.80
2017,02,10,10,08,3.70
2017,02,10,10,09,3.70
2017,02,10,10,10,3.60
2017,02,10,10,11,3.60
2017,02,10,10,12,3.60
2017,02,10,10,13,3.60
2017,02,10,10,14,3.70
2017,02,10,10,15,3.70
2017,02,10,10,16,3.70
2017,02,10,10,17,3.70
2017,02,10,10,18,3.70
2017,02,10,10,19,3.80
2017,02,10,10,20,3.80
2017,02,10,10,21,3.90
2017,02,10,10,22,3.90
2017,02,10,10,23,4.00
2017,02,10,10,24,4.00
2017,02,10,10,25,4.10
2017,02,10,10,26,4.10
2017,02,10,10,27,4.10
2017,02,10,10,28,4.10
2017,02,10,10,29,4.10
2017,02,10,10,30,4.00
2017,02,10,10,31,4.00
2017,02,10,10,32,4.00
2017,02,10,10,33,3.90
2017,02,10,10,34,3.90
2017,02,10,10,35,3.90
2017,02,10,10,36,3.90
2017,02,10,10,37,3.80
2017,02,10,10,38,3.80
2017,02,10,10,39,3.80
2017,02,10,10,40,3.80
2017,02,10,10,41,3.80
2017,02,10,10,42,3.80
2017,02,10,10,43,3.80
2017,02,10,10,44,3.80
2017,02,10,10,45,3.80
2017,02,10,10,46,3.90
2017,02,10,10,47,3.90
2017,02,10,10,48,4.00
2017,02,10,10,49,4.00
2017,02,10,10,50,4.10
2017,02,10,10,51,4.10
2017,02,10,10,52,4.10
2017,02,10,10,53,4.10
2017,02,10,10,54,4.10
2017,02,10,10,55,4.10
2017,02,10,10,56,4.10
2017,02,10,10,57,4.10
2017,02,10,10,58,4.10
2017,02,10,10,59,4.10
2017,02,10,11,00,4.10
2017,02,10,11,01,4.10
2017,02,10,11,02,4.10
2017,02,10,11,03,4.10
2017,02,10,11,04,4.10
2017,02,10,11,05,4.10
2017,02,10,11,06,4.20
2017,02,10,11,07,4.20
2017,02,10,11,08,4.20
2017,02,10,11,09,4.20
2017,02,10,11,10,4.20
2017,02,10,11,11,4.30
2017,02,10,11,12,4.30
2017,02,10,11,13,4.30
2017,02,10,11,14,4.40
2017,02,10,11,15,4.40
2017,02,10,11,16,4.40
2017,02,10,11,17,4.40
2017,02,10,11,18,4.40
2017,02,10,11,19,4.40
2017,02,10,11,20,4.40
2017,02,10,11,21,4.40
2017,02,10,11,22,4.50
2017,02,10,11,23,4.50
2017,02,10,11,24,4.60
2017,02,10,11,25,4.60
2017,02,10,11,26,4.60
2017,02,10,11,27,4.70
2017,02,10,11,28,4.70
2017,02,10,11,29,4.70
2017,02,10,11,30,4.70
2017,02,10,11,31,4.70
2017,02,10,11,32,4.70
2017,02,10,11,33,4.70
2017,02,10,11,34,4.70
2017,02,10,11,35,4.70
2017,02,10,11,36,4.70
2017,02,10,11,37,4.70
2017,02,10,11,38,4.70
2017,02,10,11,39,4.70
2017,02,10,11,40,4.70
2017,02,10,11,41,4.70
2017,02,10,11,42,4.70
2017,02,10,11,43,4.70
2017,02,10,11,44,4.70
2017,02,10,11,45,4.70
2017,02,10,11,46,4.70
2017,02,10,11,47,4.70
2017,02,10,11,48,4.70
2017,02,10,11,49,4.70
2017,02,10,11,50,4.70
2017,02,10,11,51,4.70
2017,02,10,11,52,4.70
2017,02,10,11,53,4.70
2017,02,10,11,54,4.70
2017,02,10,11,55,4.70
2017,02,10,11,56,4.70
2017,02,10,11,57,4.70
2017,02,10,11,58,4.70
2017,02,10,11,59,4.70
2017,02,10,12,00,4.70
2017,02,10,12,01,4.70
2017,02,10,12,02,4.70
2017,02,10,12,03,4.70
2017,02,10,12,04,4.60
2017,02,10,12,05,4.60
2017,02,10,12,06,4.60
2017,02,10,12,07,4.50
2017,02,10,12,08,4.50
2017,02,10,12,09,4.40
2017,02,10,12,10,4.40
2017,02,10,12,11,4.40
2017,02,10,12,12,4.40
2017,02,10,12,13,4.30
2017,02,10,12,14,4.30
2017,02,10,12,15,4.30
2017,02,10,12,16,4.40
2017,02,10,12,17,4.30
2017,02,10,12,18,4.30
2017,02,10,12,19,4.30
2017,02,10,12,20,4.30
2017,02,10,12,21,4.30
2017,02,10,12,22,4.30
2017,02,10,12,23,4.30
2017,02,10,12,24,4.30
2017,02,10,12,25,4.30
2017,02,10,12,26,4.30
2017,02,10,12,27,4.30
2017,02,10,12,28,4.30
2017,02,10,12,29,4.30
2017,02,10,12,30,4.30
2017,02,10,12,31,4.20
2017,02,10,12,32,4.10
2017,02,10,12,33,4.10
2017,02,10,12,34,4.10
2017,02,10,12,35,4.10
2017,02,10,12,36,4.10
2017,02,10,12,37,4.00
2017,02,10,12,38,4.00
2017,02,10,12,39,3.90
2017,02,10,12,40,3.90
2017,02,10,12,41,4.00
2017,02,10,12,42,3.90
2017,02,10,12,43,3.90
2017,02,10,12,44,3.90
2017,02,10,12,45,3.90
2017,02,10,12,46,3.90
2017,02,10,12,47,3.90
2017,02,10,12,48,3.90
2017,02,10,12,49,3.90
2017,02,10,12,50,3.90
2017,02,10,12,51,3.90
2017,02,10,12,52,3.90
2017,02,10,12,53,3.90
2017,02,10,12,54,3.90
2017,02,10,12,55,3.90
2017,02,10,12,56,3.90
2017,02,10,12,57,3.90
2017,02,10,12,58,3.90
2017,02,10,12,59,3.90
2017,02,10,13,00,3.90
2017,02,10,13,01,3.90
2017,02,10,13,02,3.90
2017,02,10,13,03,3.90
2017,02,10,13,04,3.90
2017,02,10,13,05,3.90
2017,02,10,13,06,3.90
2017,02,10,13,07,3.90
2017,02,10,13,08,3.90
2017,02,10,13,09,3.80
2017,02,10,13,10,3.80
2017,02,10,13,11,3.80
2017,02,10,13,12,3.80
2017,02,10,13,13,3.90
2017,02,10,13,14,3.90
2017,02,10,13,15,3.90
2017,02,10,13,16,3.90
2017,02,10,13,17,4.00
2017,02,10,13,18,4.00
2017,02,10,13,19,4.10
2017,02,10,13,20,4.10
2017,02,10,13,21,4.10
2017,02,10,13,22,4.10
2017,02,10,13,23,4.10
2017,02,10,13,24,4.10
2017,02,10,13,25,4.10
2017,02,10,13,26,4.10
2017,02,10,13,27,4.10
2017,02,10,13,28,4.10
2017,02,10,13,29,4.10
2017,02,10,13,30,4.00
2017,02,10,13,31,3.90
2017,02,10,13,32,3.90
2017,02,10,13,33,3.90
2017,02,10,13,34,3.90
2017,02,10,13,35,3.90
2017,02,10,13,36,3.90
2017,02,10,13,37,3.80
2017,02,10,13,38,3.90
2017,02,10,13,39,3.90
2017,02,10,13,40,3.90
2017,02,10,13,41,3.90
2017,02,10,13,42,3.90
2017,02,10,13,43,4.00
2017,02,10,13,44,4.10
2017,02,10,13,45,4.10
2017,02,10,13,46,4.10
2017,02,10,13,47,4.00
2017,02,10,13,48,3.90
2017,02,10,13,49,3.90
2017,02,10,13,50,3.90
2017,02,10,13,51,3.90
2017,02,10,13,52,3.90
2017,02,10,13,53,3.90
2017,02,10,13,54,3.90
2017,02,10,13,55,3.90
2017,02,10,13,56,3.90
2017,02,10,13,57,3.90
2017,02,10,13,58,3.80
2017,02,10,13,59,3.80
2017,02,10,14,00,3.80
2017,02,10,14,01,3.80
2017,02,10,14,02,3.70
2017,02,10,14,03,3.70
2017,02,10,14,04,3.70
2017,02,10,14,05,3.60
2017,02,10,14,06,3.60
2017,02,10,14,07,3.60
2017,02,10,14,08,3.60
2017,02,10,14,09,3.60
2017,02,10,14,10,3.60
2017,02,10,14,11,3.60
2017,02,10,14,12,3.60
2017,02,10,14,13,3.60
2017,02,10,14,14,3.60
2017,02,10,14,15,3.50
2017,02,10,14,16,3.50
2017,02,10,14,17,3.50
2017,02,10,14,18,3.40
2017,02,10,14,19,3.40
2017,02,10,14,20,3.40
2017,02,10,14,21,3.30
2017,02,10,14,22,3.30
2017,02,10,14,23,3.20
2017,02,10,14,24,3.20
2017,02,10,14,25,3.10
2017,02,10,14,26,3.10
2017,02,10,14,27,3.10
2017,02,10,14,28,3.10
2017,02,10,14,29,3.10
2017,02,10,14,30,3.00
2017,02,10,14,31,2.90
2017,02,10,14,32,2.90
2017,02,10,14,33,2.90
2017,02,10,14,34,2.80
2017,02,10,14,35,2.80
2017,02,10,14,36,2.90
2017,02,10,14,37,2.90
2017,02,10,14,38,2.90
2017,02,10,14,39,2.90
2017,02,10,14,40,2.90
2017,02,10,14,41,2.90
2017,02,10,14,42,2.90
2017,02,10,14,43,2.90
2017,02,10,14,44,2.90
2017,02,10,14,45,3.00
2017,02,10,14,46,3.00
2017,02,10,14,47,3.00
2017,02,10,14,48,3.00
2017,02,10,14,49,3.10
2017,02,10,14,50,3.10
2017,02,10,14,51,3.10
2017,02,10,14,52,3.10
2017,02,10,14,53,3.10
2017,02,10,14,54,3.20
2017,02,10,14,55,3.20
2017,02,10,14,56,3.20
2017,02,10,14,57,3.30
2017,02,10,14,58,3.30
2017,02,10,14,59,3.30
2017,02,10,15,00,3.40
2017,02,10,15,01,3.40
2017,02,10,15,02,3.40
2017,02,10,15,03,3.40
2017,02,10,15,04,3.50
2017,02,10,15,05,3.50
2017,02,10,15,06,3.50
2017,02,10,15,07,3.50
2017,02,10,15,08,3.50
2017,02,10,15,09,3.50
2017,02,10,15,10,3.50
2017,02,10,15,11,3.50
2017,02,10,15,12,3.60
2017,02,10,15,13,3.60
2017,02,10,15,14,3.60
2017,02,10,15,15,3.60
2017,02,10,15,16,3.60
2017,02,10,15,17,3.60
2017,02,10,15,18,3.60
2017,02,10,15,19,3.60
2017,02,10,15,20,3.60
2017,02,10,15,21,3.50
2017,02,10,15,22,3.50
2017,02,10,15,23,3.60
2017,02,10,15,24,3.60
2017,02,10,15,25,3.60
2017,02,10,15,26,3.60
2017,02,10,15,27,3.60
2017,02,10,15,28,3.60
2017,02,10,15,29,3.60
2017,02,10,15,30,3.70
2017,02,10,15,31,3.70
2017,02,10,15,32,3.70
2017,02,10,15,33,3.70
2017,02,10,15,34,3.70
2017,02,10,15,35,3.60
2017,02,10,15,36,3.60
2017,02,10,15,37,3.60
2017,02,10,15,38,3.60
2017,02,10,15,39,3.60
2017,02,10,15,40,3.60
2017,02,10,15,41,3.60
2017,02,10,15,42,3.60
2017,02,10,15,43,3.50
2017,02,10,15,44,3.50
2017,02,10,15,45,3.50
2017,02,10,15,46,3.40
2017,02,10,15,47,3.40
2017,02,10,15,48,3.40
2017,02,10,15,49,3.30
2017,02,10,15,50,3.30
2017,02,10,15,51,3.30
2017,02,10,15,52,3.30
2017,02,10,15,53,3.20
2017,02,10,15,54,3.20
2017,02,10,15,55,3.20
2017,02,10,15,56,3.20
2017,02,10,15,57,3.20
2017,02,10,15,58,3.20
2017,02,10,15,59,3.20
2017,02,10,16,00,3.20
2017,02,10,16,01,3.20
2017,02,10,16,02,3.10
2017,02,10,16,03,3.10
2017,02,10,16,04,3.10
2017,02,10,16,05,3.10
2017,02,10,16,06,3.10
2017,02,10,16,07,3.10
2017,02,10,16,08,3.10
2017,02,10,16,09,3.10
2017,02,10,16,10,3.10
2017,02,10,16,11,3.10
2017,02,10,16,12,3.10
2017,02,10,16,13,3.10
2017,02,10,16,14,3.10
2017,02,10,16,15,3.10
2017,02,10,16,16,3.10
2017,02,10,16,17,3.10
2017,02,10,16,18,3.10
2017,02,10,16,19,3.10
2017,02,10,16,20,3.10
2017,02,10,16,21,3.10
2017,02,10,16,22,3.10
2017,02,10,16,23,3.10
2017,02,10,16,24,3.10
2017,02,10,16,25,3.10
2017,02,10,16,26,3.10
2017,02,10,16,27,3.10
2017,02,10,16,28,3.10
2017,02,10,16,29,3.10
2017,02,10,16,30,3.00
2017,02,10,16,31,3.00
2017,02,10,16,32,2.90
2017,02,10,16,33,2.90
2017,02,10,16,34,2.80
2017,02,10,16,35,2.80
2017,02,10,16,36,2.80
2017,02,10,16,37,2.70
2017,02,10,16,38,2.70
2017,02,10,16,39,2.70
2017,02,10,16,40,2.70
2017,02,10,16,41,2.60
2017,02,10,16,42,2.60
2017,02,10,16,43,2.60
2017,02,10,16,44,2.60
2017,02,10,16,45,2.60
2017,02,10,16,46,2.60
2017,02,10,16,47,2.60
2017,02,10,16,48,2.60
2017,02,10,16,49,2.60
2017,02,10,16,50,2.60
2017,02,10,16,51,2.60
2017,02,10,16,52,2.60
2017,02,10,16,53,2.60
2017,02,10,16,54,2.60
2017,02,10,16,55,2.70
2017,02,10,16,56,2.70
2017,02,10,16,57,2.70
2017,02,10,16,58,2.70
2017,02,10,16,59,2.70
2017,02,10,17,00,2.70
2017,02,10,17,01,2.70
2017,02,10,17,02,2.70
2017,02,10,17,03,2.70
2017,02,10,17,04,2.70
2017,02,10,17,05,2.60
2017,02,10,17,06,2.60
2017,02,10,17,07,2.60
2017,02,10,17,08,2.60
2017,02,10,17,09,2.50
2017,02,10,17,10,2.50
2017,02,10,17,11,2.50
2017,02,10,17,12,2.50
2017,02,10,17,13,2.50
2017,02,10,17,14,2.50
2017,02,10,17,15,2.40
2017,02,10,17,16,2.40
2017,02,10,17,17,2.40
2017,02,10,17,18,2.40
2017,02,10,17,19,2.40
2017,02,10,17,20,2.40
2017,02,10,17,21,2.40
2017,02,10,17,22,2.40
2017,02,10,17,23,2.40
2017,02,10,17,24,2.40
2017,02,10,17,25,2.40
2017,02,10,17,26,2.40
2017,02,10,17,27,2.40
2017,02,10,17,28,2.40
2017,02,10,17,29,2.40
2017,02,10,17,30,2.50
2017,02,10,17,31,2.50
2017,02,10,17,32,2.50
2017,02,10,17,33,2.50
2017,02,10,17,34,2.50
2017,02,10,17,35,2.50
2017,02,10,17,36,2.50
2017,02,10,17,37,2.50
2017,02,10,17,38,2.60
2017,02,10,17,39,2.60
2017,02,10,17,40,2.60
2017,02,10,17,41,2.60
2017,02,10,17,42,2.50
2017,02,10,17,43,2.50
2017,02,10,17,44,2.50
2017,02,10,17,45,2.40
2017,02,10,17,46,2.40
2017,02,10,17,47,2.30
2017,02,10,17,48,2.30
2017,02,10,17,49,2.30
2017,02,10,17,50,2.30
2017,02,10,17,51,2.30
2017,02,10,17,52,2.30
2017,02,10,17,53,2.20
2017,02,10,17,54,2.20
2017,02,10,17,55,2.20
2017,02,10,17,56,2.20
2017,02,10,17,57,2.20
2017,02,10,17,58,2.20
2017,02,10,17,59,2.20
2017,02,10,18,00,2.30
2017,02,10,18,01,2.30
2017,02,10,18,02,2.30
2017,02,10,18,03,2.40
2017,02,10,18,04,2.40
2017,02,10,18,05,2.50
2017,02,10,18,06,2.60
2017,02,10,18,07,2.60
2017,02,10,18,08,2.70
2017,02,10,18,09,2.70
2017,02,10,18,10,2.70
2017,02,10,18,11,2.80
2017,02,10,18,12,2.80
2017,02,10,18,13,2.80
2017,02,10,18,14,2.80
2017,02,10,18,15,2.80
2017,02,10,18,16,2.80
2017,02,10,18,17,2.80
2017,02,10,18,18,2.80
2017,02,10,18,19,2.80
2017,02,10,18,20,2.80
2017,02,10,18,21,2.80
2017,02,10,18,22,2.80
2017,02,10,18,23,2.80
2017,02,10,18,24,2.80
2017,02,10,18,25,2.70
2017,02,10,18,26,2.70
2017,02,10,18,27,2.70
2017,02,10,18,28,2.70
2017,02,10,18,29,2.70
2017,02,10,18,30,2.70
2017,02,10,18,31,2.70
2017,02,10,18,32,2.70
2017,02,10,18,33,2.70
2017,02,10,18,34,2.70
2017,02,10,18,35,2.70
2017,02,10,18,36,2.70
2017,02,10,18,37,2.70
2017,02,10,18,38,2.70
2017,02,10,18,39,2.70
2017,02,10,18,40,2.70
2017,02,10,18,41,2.60
2017,02,10,18,42,2.60
2017,02,10,18,43,2.60
2017,02,10,18,44,2.60
2017,02,10,18,45,2.50
2017,02,10,18,46,2.50
2017,02,10,18,47,2.50
2017,02,10,18,48,2.40
2017,02,10,18,49,2.40
2017,02,10,18,50,2.40
2017,02,10,18,51,2.30
2017,02,10,18,52,2.30
2017,02,10,18,53,2.30
2017,02,10,18,54,2.30
2017,02,10,18,55,2.30
2017,02,10,18,56,2.20
2017,02,10,18,57,2.20
2017,02,10,18,58,2.20
2017,02,10,18,59,2.20
2017,02,10,19,00,2.20
2017,02,10,19,01,2.20
2017,02,10,19,02,2.20
2017,02,10,19,03,2.20
2017,02,10,19,04,2.20
2017,02,10,19,05,2.10
2017,02,10,19,06,2.10
2017,02,10,19,07,2.10
2017,02,10,19,08,2.10
2017,02,10,19,09,2.10
2017,02,10,19,10,2.00
2017,02,10,19,11,2.00
2017,02,10,19,12,2.10
2017,02,10,19,13,2.10
2017,02,10,19,14,2.10
2017,02,10,19,15,2.10
2017,02,10,19,16,2.10
2017,02,10,19,17,2.10
2017,02,10,19,18,2.00
2017,02,10,19,19,2.00
2017,02,10,19,20,2.00
2017,02,10,19,21,2.10
2017,02,10,19,22,2.10
2017,02,10,19,23,2.00
2017,02,10,19,24,2.00
2017,02,10,19,25,2.00
2017,02,10,19,26,2.00
2017,02,10,19,27,2.00
2017,02,10,19,28,2.00
2017,02,10,19,29,2.00
2017,02,10,19,30,1.90
2017,02,10,19,31,1.90
2017,02,10,19,32,1.90
2017,02,10,19,33,1.90
2017,02,10,19,34,1.80
2017,02,10,19,35,1.80
2017,02,10,19,36,1.70
2017,02,10,19,37,1.70
2017,02,10,19,38,1.70
2017,02,10,19,39,1.70
2017,02,10,19,40,1.70
2017,02,10,19,41,1.60